Torna al catalogo

TITAN 3C TRANSTAGE R/B

AttivoGEO
NORAD 13089·ROCKET BODY·🇺🇸 United States

Lanciato Mar 6, 1982 da Cape Canaveral Space Force Station

Loading…

TLE

AggiornatoSource: Space-Track

Epoca: Sep 14, 2026, 05:57 UTC

1 13089U 82019B   26257.24799750 -.00000022  00000-0  00000-0 0  9991
2 13089   7.3260 300.9095 0011131 155.3292 204.6319  1.01258735 26534

Traccia TITAN 3C TRANSTAGE R/B in tempo reale con AllMySat

Download on the App Store